GW6881 Weather Reports


Display with metric or nautical units.
time (UTC)temp
F
wind
direction
speed
MPH
gust
MPH
rain 1hr
in
rain 24hr
in
rain mn
in
humidity
%
barometer
mb
20260905191517 65 0.0 0.0 0.00 0.09 0.09 62 1019.6
20260905190537 65 0.0 0.0 0.00 0.09 0.09 61 1019.6
20260905185518 65 0.0 0.0 0.00 0.09 0.09 59 1019.6
20260905184538 65 0.0 0.0 0.00 0.09 0.09 57 1019.2
20260905183538 66 0.0 0.0 0.00 0.09 0.09 57 1019.2
20260905182517 66 0.0 0.0 0.00 0.09 0.09 56 1019.3
20260905181517 67 0.0 0.0 0.00 0.09 0.09 54 1019.3
20260905180517 69 0.0 0.0 0.00 0.09 0.09 52 1019.2
20260905175517 70 0.0 1.0 0.00 0.09 0.09 51 1019.0
20260905174517 71 0.0 1.0 0.00 0.09 0.09 48 1018.9
20260905173517 72 0.0 1.0 0.00 0.09 0.09 46 1018.8
20260905172517 73 0.0 1.0 0.00 0.09 0.09 46 1018.8
20260905171517 73 338 1.0 4.0 0.00 0.09 0.09 44 1018.8
20260905170517 74 293 1.0 6.0 0.00 0.09 0.09 43 1018.7
20260905165517 75 293 2.0 4.0 0.00 0.09 0.09 41 1018.7
20260905164517 76 315 2.0 6.0 0.00 0.09 0.09 41 1018.6
20260905163517 77 315 3.0 6.0 0.00 0.09 0.09 40 1018.5
20260905162517 77 315 2.0 7.0 0.00 0.09 0.09 41 1018.3
20260905161557 78 315 2.0 6.0 0.00 0.09 0.09 41 1018.4
20260905160537 78 338 2.0 7.0 0.00 0.09 0.09 40 1018.3
20260905155517 79 338 1.0 4.0 0.00 0.09 0.09 42 1018.3
20260905154517 80 315 2.0 7.0 0.00 0.09 0.09 40 1018.0
20260905153517 80 248 2.0 6.0 0.00 0.09 0.09 42 1017.8
20260905152517 80 293 2.0 7.0 0.00 0.09 0.09 41 1017.9
20260905151517 80 315 2.0 7.0 0.00 0.09 0.09 42 1017.9
20260905150517 81 248 1.0 5.0 0.00 0.09 0.09 40 1018.0
20260905145517 80 0 1.0 5.0 0.00 0.09 0.09 39 1018.0
20260905144537 80 0 3.0 8.0 0.00 0.09 0.09 39 1017.9
20260905143517 80 338 2.0 6.0 0.00 0.09 0.09 39 1017.9
20260905142537 80 315 2.0 6.0 0.00 0.09 0.09 39 1018.2
20260905141537 79 315 3.0 6.0 0.00 0.09 0.09 38 1018.2
20260905140618 80 270 2.0 4.0 0.00 0.09 0.09 38 1018.2
20260905135537 80 338 3.0 10.0 0.00 0.09 0.09 38 1018.2
20260905134517 80 315 2.0 7.0 0.00 0.09 0.09 39 1018.5
20260905133517 79 315 3.0 7.0 0.00 0.09 0.09 39 1018.5
20260905132517 79 293 2.0 7.0 0.00 0.09 0.09 40 1018.3
20260905131537 79 293 2.0 8.0 0.00 0.09 0.09 43 1018.3
20260905130517 78 315 2.0 6.0 0.00 0.09 0.09 42 1018.3
20260905125517 77 315 3.0 7.0 0.00 0.09 0.09 45 1018.4
20260905124517 78 248 3.0 9.0 0.00 0.09 0.09 44 1018.3
20260905123517 79 248 2.0 7.0 0.00 0.09 0.09 45 1018.4
20260905122517 77 315 2.0 10.0 0.00 0.09 0.09 47 1018.4
20260905121557 77 338 1.0 4.0 0.00 0.09 0.09 48 1018.4
20260905120537 78 338 2.0 8.0 0.00 0.09 0.09 49 1018.5
20260905115517 77 315 1.0 5.0 0.00 0.09 0.09 49 1018.3
20260905114517 75 293 2.0 6.0 0.00 0.09 0.09 53 1018.4
20260905113517 75 248 2.0 5.0 0.00 0.09 0.09 56 1018.6
20260905112517 74 248 2.0 6.0 0.00 0.09 0.09 57 1018.7
20260905111537 73 0 1.0 6.0 0.00 0.09 0.09 58 1018.8
20260905110517 73 270 1.0 6.0 0.00 0.09 0.09 62 1018.8
20260905105517 72 248 1.0 8.0 0.00 0.09 0.09 65 1018.9
20260905104537 71 293 1.0 4.0 0.00 0.09 0.09 66 1019.0
20260905103517 71 248 2.0 9.0 0.00 0.09 0.09 68 1019.1
20260905102517 70 248 2.0 8.0 0.00 0.09 0.09 69 1019.1
20260905101537 68 248 1.0 5.0 0.00 0.09 0.09 74 1019.1
20260905100517 68 248 2.0 6.0 0.00 0.09 0.09 76 1019.2
20260905095538 67 203 1.0 6.0 0.00 0.09 0.09 76 1019.1
20260905094517 66 248 1.0 4.0 0.00 0.09 0.09 80 1019.1
20260905093517 66 248 1.0 4.0 0.00 0.09 0.09 79 1019.1
20260905092517 65 270 1.0 4.0 0.00 0.09 0.09 79 1019.3
20260905091517 64 0.0 3.0 0.00 0.09 0.09 82 1019.2
20260905090517 63 0.0 1.0 0.01 0.09 0.09 85 1019.3
20260905085517 62 0.0 1.0 0.01 0.09 0.09 85 1019.5
20260905084517 62 0.0 1.0 0.01 0.09 0.09 86 1019.8
20260905083517 61 0.0 1.0 0.01 0.09 0.09 86 1019.9
20260905082538 61 0.0 3.0 0.01 0.09 0.09 87 1019.3
20260905081517 61 0.0 3.0 0.02 0.09 0.09 86 1018.9
20260905080517 61 0.0 4.0 0.02 0.08 0.08 86 1018.8
20260905075517 61 225 1.0 4.0 0.02 0.08 0.08 87 1018.5
20260905074517 61 248 1.0 4.0 0.02 0.08 0.08 86 1018.5
20260905073537 61 0.0 2.0 0.03 0.08 0.08 87 1018.1
20260905072517 61 0.0 0.0 0.03 0.08 0.08 85 1017.8
20260905071517 61 0.0 3.0 0.04 0.07 0.07 82 1018.2
20260905070537 62 0.0 0.0 0.04 0.06 0.06 85 1018.5
20260905065538 62 0.0 2.0 0.06 0.06 0.06 86 1019.0
20260905064517 62 0.0 1.0 0.06 0.06 0.06 86 1018.6
20260905063517 62 0.0 1.0 0.05 0.05 0.05 85 1018.5
20260905062517 62 0.0 2.0 0.05 0.05 0.05 85 1018.4
20260905061538 63 0.0 1.0 0.03 0.03 0.03 83 1018.2
20260905060517 65 293 1.0 4.0 0.02 0.02 0.02 76 1018.4
20260905055517 67 315 1.0 4.0 0.00 0.00 0.00 66 1018.0
20260905054537 67 293 1.0 5.0 0.00 0.00 0.00 64 1017.5
20260905053517 67 0.0 3.0 0.00 0.00 0.00 65 1017.0
20260905052537 68 0 1.0 5.0 0.00 0.00 0.00 64 1017.2
20260905051517 68 293 1.0 6.0 0.00 0.00 0.00 63 1017.4
20260905050518 69 293 1.0 6.0 0.00 0.00 0.00 61 1017.1
20260905045517 69 293 1.0 3.0 0.00 0.00 0.00 58 1016.7
20260905044518 69 293 1.0 3.0 0.00 0.00 0.00 57 1016.6
20260905043517 69 315 3.0 12.0 0.00 0.00 0.00 56 1016.8
20260905042517 69 338 1.0 4.0 0.00 0.00 0.00 60 1016.1
20260905041517 68 315 1.0 3.0 0.00 0.00 0.00 59 1015.9
20260905040517 68 0.0 3.0 0.00 0.00 0.00 59 1015.6
20260905035517 69 0.0 2.0 0.00 0.00 0.00 59 1015.3
20260905034517 69 293 1.0 8.0 0.00 0.00 0.00 58 1015.5
20260905033517 70 315 1.0 3.0 0.00 0.00 0.00 57 1014.8
20260905032517 70 0 1.0 4.0 0.00 0.00 0.00 56 1014.4
20260905031517 71 0 2.0 6.0 0.00 0.00 0.00 56 1014.2
20260905030517 71 0 2.0 5.0 0.00 0.00 0.00 57 1014.0
20260905025517 71 0 1.0 2.0 0.00 0.00 0.00 58 1014.2
20260905024517 72 0 2.0 5.0 0.00 0.00 0.00 58 1014.2
20260905023517 73 0 2.0 5.0 0.00 0.00 0.00 57 1013.6
20260905022517 74 23 3.0 7.0 0.00 0.00 0.00 56 1013.4
20260905021517 77 0 4.0 17.0 0.00 0.00 0.00 53 1013.4
20260905020517 78 293 1.0 5.0 0.00 0.00 0.00 52 1012.6
20260905015517 76 315 1.0 3.0 0.00 0.00 0.00 54 1012.4
20260905014517 73 0.0 1.0 0.00 0.00 0.00 60 1012.4
20260905013517 71 0.0 0.0 0.00 0.00 0.00 62 1012.4
20260905012517 71 0.0 0.0 0.00 0.00 0.00 62 1012.2
20260905011517 71 0.0 0.0 0.00 0.00 0.00 60 1012.1
20260905010517 71 0.0 0.0 0.00 0.00 0.00 60 1012.0
20260905005517 71 0.0 0.0 0.00 0.00 0.00 61 1012.0
20260905004517 72 0.0 0.0 0.00 0.00 0.00 61 1012.1
20260905003517 72 0.0 1.0 0.00 0.00 0.00 60 1011.9
20260905002537 71 0.0 1.0 0.00 0.00 0.00 62 1011.9
20260905001517 71 0.0 0.0 0.00 0.00 0.00 66 1011.8
20260905000518 71 0.0 0.0 0.00 0.00 0.00 65 1011.8
20260904235517 72 0.0 0.0 0.00 0.00 0.00 63 1011.5
20260904234517 73 0.0 0.0 0.00 0.00 0.00 59 1011.4
20260904233517 72 0.0 1.0 0.00 0.00 0.00 61 1011.4
20260904232517 71 0.0 0.0 0.00 0.00 0.00 64 1011.3
20260904231517 71 0.0 0.0 0.00 0.00 0.00 64 1011.3
20260904230518 71 0.0 0.0 0.00 0.00 0.00 65 1011.4
20260904225517 71 0.0 0.0 0.00 0.00 0.00 63 1011.3
20260904224517 71 0.0 1.0 0.00 0.00 0.00 64 1011.3
20260904223517 70 0.0 0.0 0.00 0.00 0.00 66 1011.3
20260904222517 70 0.0 0.0 0.00 0.00 0.00 67 1011.3
20260904221517 70 0.0 0.0 0.00 0.00 0.00 67 1011.4
20260904220518 70 0.0 1.0 0.00 0.00 0.00 66 1011.3
20260904215517 70 0.0 1.0 0.00 0.00 0.00 66 1011.3
20260904214519 71 0.0 1.0 0.00 0.00 0.00 65 1011.3
20260904213517 71 0.0 1.0 0.00 0.00 0.00 63 1011.3
20260904212517 71 0.0 0.0 0.00 0.00 0.00 63 1011.2
20260904211517 71 0.0 0.0 0.00 0.00 0.00 63 1011.2
20260904210517 72 0.0 0.0 0.00 0.00 0.00 63 1011.3
20260904204515 72 0.0 0.0 0.00 0.00 0.00 61 1011.3
20260904203517 73 0.0 0.0 0.00 0.00 0.00 60 1011.3
20260904202517 74 0.0 0.0 0.00 0.00 0.00 58 1011.3
20260904201517 74 0.0 0.0 0.00 0.00 0.00 57 1011.4
20260904200517 74 0.0 0.0 0.00 0.00 0.00 57 1011.4
20260904195517 74 0.0 1.0 0.00 0.00 0.00 57 1011.5
20260904194517 75 0.0 1.0 0.00 0.00 0.00 57 1011.6
20260904193517 76 0.0 1.0 0.00 0.00 0.00 55 1011.7
20260904192518 76 0.0 0.0 0.00 0.00 0.00 54 1011.7